QPF
0.00 0.01 0.02 0.03 0.02 0.01 0.01 0.01 0.01 0.01 0.01 0.01 0.01 0.02 0.02 0.02 0.03 0.06 0.15 0.15 0.11 0.09 0.08 0.06 0.05 0.04 0.03 0.04 0.05 0.03 0.03 0.03 0.03 0.05 0.05 0.05 0.05 0.05 0.06 0.06 0.05 0.07 0.06 0.07 0.09 0.10 0.12 0.21 0.36
0.01 0.01 0.03 0.03 0.02 0.01 0.01 0.01 0.01 0.01 0.01 0.01 0.01 0.01 0.02 0.02 0.03 0.07 0.12 0.11 0.08 0.06 0.05 0.04 0.04 0.04 0.04 0.04 0.04 0.03 0.03 0.03 0.04 0.06 0.06 0.05 0.05 0.05 0.05 0.06 0.05 0.06 0.06 0.07 0.09 0.09 0.10 0.12 0.17
0.01 0.02 0.02 0.01 0.02 0.02 0.01 0.02 0.01 0.01 0.01 0.01 0.01 0.01 0.02 0.04 0.05 0.09 0.10 0.06 0.04 0.03 0.03 0.04 0.04 0.04 0.04 0.03 0.03 0.03 0.03 0.04 0.05 0.05 0.05 0.05 0.05 0.05 0.05 0.06 0.06 0.07 0.11 0.12 0.10 0.09 0.09 0.09 0.11
0.01 0.02 0.01 0.01 0.02 0.02 0.01 0.01 0.01 0.01 0.01 0.00 0.00 0.01 0.03 0.04 0.07 0.07 0.05 0.04 0.03 0.02 0.03 0.04 0.03 0.04 0.04 0.04 0.03 0.02 0.03 0.04 0.04 0.05 0.06 0.08 0.06 0.05 0.05 0.08 0.07 0.08 0.11 0.14 0.15 0.13 0.10 0.10 0.11
0.01 0.01 0.01 0.02 0.02 0.02 0.02 0.02 0.01 0.00 0.00 0.00 0.00 0.01 0.03 0.03 0.04 0.03 0.03 0.04 0.02 0.02 0.03 0.03 0.04 0.05 0.05 0.04 0.03 0.03 0.04 0.04 0.04 0.05 0.07 0.07 0.08 0.07 0.06 0.09 0.09 0.12 0.14 0.14 0.17 0.15 0.10 0.10 0.10
0.01 0.01 0.01 0.03 0.05 0.04 0.04 0.02 0.01 0.00 0.00 0.00 0.00 0.01 0.04 0.04 0.04 0.03 0.03 0.05 0.03 0.03 0.03 0.04 0.06 0.05 0.04 0.04 0.04 0.05 0.06 0.05 0.04 0.05 0.05 0.05 0.07 0.07 0.05 0.06 0.07 0.09 0.10 0.11 0.12 0.14 0.11 0.11 0.10
0.02 0.01 0.01 0.02 0.04 0.05 0.07 0.03 0.01 0.01 0.01 0.01 0.01 0.01 0.04 0.06 0.05 0.05 0.05 0.07 0.08 0.08 0.07 0.06 0.07 0.05 0.04 0.04 0.04 0.05 0.07 0.06 0.06 0.07 0.05 0.06 0.06 0.07 0.05 0.05 0.05 0.05 0.06 0.06 0.08 0.12 0.15 0.11 0.08
0.01 0.01 0.01 0.01 0.02 0.06 0.09 0.02 0.01 0.01 0.01 0.01 0.01 0.03 0.05 0.07 0.11 0.10 0.07 0.08 0.09 0.08 0.08 0.07 0.06 0.05 0.03 0.04 0.05 0.05 0.06 0.05 0.05 0.05 0.05 0.05 0.06 0.07 0.08 0.08 0.07 0.06 0.06 0.07 0.07 0.09 0.11 0.10 0.08
0.01 0.00 0.00 0.01 0.02 0.03 0.03 0.01 0.01 0.02 0.02 0.01 0.01 0.04 0.07 0.05 0.07 0.09 0.09 0.12 0.09 0.09 0.08 0.06 0.06 0.04 0.03 0.04 0.05 0.05 0.06 0.06 0.05 0.05 0.05 0.04 0.05 0.06 0.08 0.08 0.10 0.09 0.08 0.08 0.08 0.08 0.08 0.09 0.09
0.00 0.00 0.00 0.01 0.01 0.01 0.01 0.02 0.02 0.02 0.02 0.02 0.02 0.03 0.05 0.04 0.03 0.03 0.05 0.05 0.06 0.10 0.11 0.10 0.08 0.07 0.05 0.04 0.05 0.05 0.04 0.04 0.04 0.04 0.04 0.04 0.04 0.05 0.07 0.09 0.11 0.12 0.10 0.10 0.09 0.09 0.09 0.06 0.06
0.00 0.00 0.00 0.01 0.01 0.01 0.02 0.02 0.02 0.02 0.02 0.01 0.01 0.01 0.02 0.02 0.02 0.02 0.03 0.04 0.04 0.07 0.11 0.14 0.13 0.12 0.09 0.07 0.06 0.05 0.04 0.04 0.05 0.06 0.05 0.04 0.05 0.07 0.09 0.10 0.14 0.15 0.11 0.09 0.10 0.10 0.09 0.05 0.04
0.00 0.00 0.00 0.01 0.01 0.00 0.01 0.02 0.02 0.01 0.01 0.01 0.01 0.01 0.01 0.01 0.01 0.02 0.04 0.05 0.06 0.08 0.10 0.13 0.16 0.15 0.11 0.09 0.09 0.10 0.07 0.07 0.07 0.07 0.05 0.04 0.06 0.08 0.11 0.13 0.16 0.14 0.09 0.08 0.10 0.10 0.10 0.06 0.05
0.00 0.00 0.00 0.00 0.00 0.00 0.00 0.01 0.01 0.01 0.01 0.01 0.01 0.01 0.01 0.01 0.01 0.01 0.03 0.04 0.05 0.06 0.07 0.07 0.08 0.06 0.07 0.07 0.07 0.08 0.08 0.06 0.04 0.04 0.05 0.06 0.08 0.10 0.14 0.16 0.16 0.14 0.10 0.10 0.10 0.10 0.08 0.07 0.06
0.00 0.00 0.00 0.00 0.01 0.01 0.01 0.01 0.01 0.02 0.01 0.01 0.02 0.02 0.01 0.01 0.01 0.01 0.01 0.02 0.03 0.04 0.06 0.05 0.05 0.04 0.04 0.04 0.04 0.05 0.05 0.03 0.02 0.03 0.04 0.04 0.07 0.10 0.13 0.13 0.14 0.16 0.14 0.11 0.09 0.09 0.09 0.08 0.06
0.00 0.00 0.00 0.00 0.00 0.00 0.00 0.01 0.02 0.01 0.01 0.01 0.01 0.01 0.01 0.01 0.01 0.01 0.01 0.01 0.02 0.03 0.03 0.03 0.03 0.03 0.03 0.04 0.04 0.04 0.05 0.04 0.04 0.03 0.04 0.06 0.08 0.11 0.11 0.09 0.10 0.13 0.13 0.13 0.11 0.10 0.10 0.09 0.07
0.00 0.00 0.01 0.01 0.01 0.01 0.00 0.01 0.02 0.01 0.01 0.01 0.00 0.00 0.00 0.00 0.01 0.01 0.01 0.02 0.01 0.02 0.02 0.02 0.02 0.04 0.05 0.05 0.05 0.04 0.04 0.03 0.03 0.03 0.04 0.05 0.07 0.09 0.09 0.08 0.08 0.08 0.09 0.11 0.13 0.13 0.11 0.09 0.07
0.00 0.00 0.00 0.00 0.01 0.01 0.00 0.01 0.00 0.00 0.00 0.00 0.00 0.00 0.00 0.00 0.00 0.01 0.01 0.03 0.03 0.01 0.01 0.02 0.02 0.04 0.06 0.06 0.04 0.03 0.04 0.04 0.03 0.02 0.02 0.03 0.06 0.07 0.06 0.05 0.05 0.08 0.11 0.12 0.12 0.12 0.11 0.10 0.09
0.00 0.01 0.00 0.00 0.01 0.01 0.00 0.00 0.00 0.00 0.00 0.01 0.01 0.00 0.00 0.00 0.01 0.01 0.02 0.01 0.02 0.01 0.01 0.01 0.01 0.03 0.03 0.03 0.03 0.03 0.05 0.05 0.05 0.04 0.03 0.04 0.06 0.07 0.05 0.04 0.03 0.05 0.07 0.07 0.07 0.07 0.08 0.08 0.08
0.00 0.00 0.00 0.00 0.00 0.01 0.01 0.00 0.00 0.00 0.00 0.00 0.01 0.00 0.00 0.00 0.01 0.03 0.06 0.02 0.02 0.01 0.01 0.01 0.01 0.01 0.02 0.02 0.02 0.03 0.05 0.05 0.05 0.05 0.05 0.05 0.05 0.06 0.05 0.04 0.03 0.03 0.03 0.03 0.04 0.06 0.07 0.06 0.06
0.00 0.00 0.00 0.00 0.00 0.00 0.01 0.01 0.00 0.00 0.00 0.00 0.01 0.00 0.00 0.00 0.01 0.02 0.03 0.02 0.02 0.01 0.01 0.01 0.01 0.01 0.01 0.01 0.02 0.02 0.03 0.03 0.03 0.06 0.06 0.05 0.04 0.04 0.04 0.04 0.03 0.03 0.02 0.02 0.03 0.05 0.08 0.08 0.08
0.00 0.00 0.00 0.00 0.00 0.00 0.01 0.01 0.00 0.00 0.00 0.00 0.00 0.00 0.00 0.00 0.01 0.01 0.01 0.02 0.01 0.01 0.01 0.00 0.01 0.01 0.01 0.01 0.01 0.01 0.01 0.01 0.03 0.04 0.06 0.05 0.04 0.03 0.03 0.04 0.04 0.04 0.03 0.02 0.04 0.06 0.06 0.07 0.10
0.00 0.00 0.00 0.00 0.01 0.00 0.00 0.00 0.00 0.00 0.00 0.00 0.00 0.00 0.01 0.00 0.00 0.00 0.01 0.02 0.01 0.01 0.00 0.00 0.00 0.01 0.01 0.01 0.01 0.01 0.01 0.01 0.02 0.03 0.05 0.06 0.06 0.05 0.05 0.04 0.04 0.04 0.04 0.05 0.06 0.07 0.07 0.07 0.08
0.00 0.00 0.00 0.00 0.00 0.00 0.00 0.01 0.01 0.00 0.00 0.00 0.00 0.01 0.00 0.00 0.00 0.01 0.01 0.02 0.01 0.00 0.00 0.00 0.00 0.00 0.01 0.01 0.01 0.01 0.01 0.02 0.03 0.04 0.05 0.07 0.08 0.08 0.07 0.06 0.05 0.06 0.06 0.05 0.04 0.04 0.05 0.05 0.06
0.00 0.00 0.00 0.00 0.00 0.00 0.00 0.00 0.00 0.00 0.00 0.00 0.00 0.00 0.00 0.00 0.01 0.01 0.01 0.01 0.01 0.00 0.00 0.00 0.00 0.00 0.00 0.01 0.01 0.01 0.01 0.02 0.02 0.04 0.04 0.06 0.10 0.12 0.12 0.08 0.07 0.09 0.06 0.05 0.05 0.04 0.04 0.03 0.04
0.00 0.00 0.00 0.00 0.00 0.00 0.00 0.00 0.00 0.00 0.00 0.00 0.00 0.00 0.00 0.00 0.00 0.00 0.00 0.01 0.01 0.00 0.00 0.00 0.00 0.00 0.00 0.00 0.00 0.01 0.01 0.01 0.01 0.02 0.03 0.05 0.09 0.11 0.15 0.13 0.12 0.10 0.06 0.05 0.05 0.04 0.05 0.05 0.05
0.00 0.00 0.00 0.00 0.00 0.00 0.00 0.00 0.00 0.00 0.00 0.01 0.00 0.00 0.00 0.00 0.01 0.01 0.01 0.01 0.01 0.00 0.00 0.00 0.00 0.00 0.00 0.00 0.00 0.00 0.00 0.01 0.01 0.02 0.02 0.03 0.06 0.07 0.08 0.11 0.11 0.08 0.05 0.04 0.04 0.05 0.04 0.05 0.05
0.01 0.01 0.00 0.00 0.00 0.00 0.00 0.00 0.00 0.00 0.00 0.01 0.01 0.00 0.00 0.01 0.01 0.01 0.01 0.01 0.01 0.00 0.00 0.00 0.00 0.00 0.00 0.00 0.00 0.00 0.00 0.01 0.01 0.02 0.02 0.02 0.02 0.04 0.06 0.05 0.05 0.06 0.05 0.04 0.04 0.04 0.04 0.05 0.05
0.01 0.01 0.01 0.00 0.00 0.00 0.00 0.00 0.00 0.00 0.00 0.00 0.00 0.00 0.00 0.00 0.01 0.01 0.01 0.01 0.01 0.00 0.00 0.00 0.00 0.00 0.00 0.00 0.00 0.00 0.01 0.01 0.02 0.02 0.02 0.01 0.01 0.02 0.04 0.05 0.04 0.04 0.05 0.05 0.04 0.03 0.04 0.04 0.05
0.01 0.01 0.01 0.01 0.00 0.00 0.00 0.00 0.00 0.00 0.00 0.00 0.00 0.00 0.00 0.00 0.01 0.01 0.01 0.01 0.00 0.00 0.00 0.00 0.00 0.00 0.00 0.00 0.00 0.00 0.01 0.01 0.01 0.01 0.02 0.01 0.02 0.02 0.02 0.04 0.06 0.05 0.04 0.04 0.03 0.03 0.03 0.03 0.03
0.01 0.01 0.01 0.01 0.00 0.00 0.00 0.00 0.00 0.00 0.00 0.00 0.00 0.00 0.00 0.01 0.01 0.01 0.01 0.01 0.00 0.00 0.00 0.00 0.00 0.00 0.00 0.00 0.00 0.00 0.01 0.01 0.01 0.01 0.02 0.02 0.01 0.02 0.02 0.03 0.04 0.05 0.04 0.04 0.03 0.03 0.02 0.02 0.02
MSLP
1004.68 1005.67 1006.66 1007.51 1008.09 1008.33 1008.24 1007.88 1007.37 1006.84 1006.40 1006.12 1005.99 1005.93 1005.83 1005.59 1005.10 1004.33 1003.31 1002.13 1000.93 999.83 998.97 998.40 998.17 998.22 998.51 998.96 999.53 1000.18 1000.92 1001.76 1002.71 1003.75 1004.88 1006.03 1007.15 1008.18 1009.08 1009.82 1010.43 1010.95 1011.41 1011.88 1012.37 1012.88 1013.41 1013.91 1014.37
1004.99 1006.08 1007.13 1007.98 1008.49 1008.62 1008.38 1007.85 1007.18 1006.52 1005.99 1005.64 1005.46 1005.36 1005.22 1004.91 1004.33 1003.43 1002.27 1000.96 999.65 998.48 997.60 997.07 996.94 997.14 997.62 998.29 999.09 999.97 1000.91 1001.92 1003.00 1004.15 1005.34 1006.52 1007.64 1008.66 1009.53 1010.24 1010.83 1011.33 1011.79 1012.26 1012.75 1013.27 1013.80 1014.31 1014.76
1005.39 1006.54 1007.59 1008.39 1008.81 1008.82 1008.44 1007.79 1007.00 1006.25 1005.65 1005.26 1005.03 1004.88 1004.66 1004.25 1003.54 1002.50 1001.21 999.78 998.38 997.18 996.31 995.88 995.88 996.28 996.97 997.88 998.90 999.99 1001.11 1002.27 1003.45 1004.66 1005.87 1007.04 1008.14 1009.12 1009.95 1010.63 1011.20 1011.68 1012.14 1012.61 1013.11 1013.64 1014.17 1014.68 1015.14
1005.86 1007.00 1008.00 1008.71 1009.02 1008.92 1008.44 1007.71 1006.88 1006.11 1005.49 1005.08 1004.82 1004.60 1004.30 1003.77 1002.92 1001.74 1000.32 998.79 997.34 996.15 995.36 995.03 995.21 995.80 996.70 997.81 999.03 1000.28 1001.54 1002.78 1004.01 1005.23 1006.42 1007.56 1008.61 1009.54 1010.34 1010.99 1011.54 1012.03 1012.49 1012.97 1013.48 1014.02 1014.55 1015.07 1015.52
1006.31 1007.38 1008.28 1008.88 1009.10 1008.91 1008.39 1007.66 1006.85 1006.12 1005.55 1005.16 1004.89 1004.63 1004.23 1003.59 1002.61 1001.31 999.78 998.20 996.75 995.60 994.90 994.72 995.05 995.81 996.89 998.15 999.50 1000.85 1002.16 1003.43 1004.65 1005.83 1006.98 1008.06 1009.06 1009.94 1010.70 1011.34 1011.89 1012.39 1012.87 1013.36 1013.88 1014.42 1014.96 1015.46 1015.91
1006.68 1007.63 1008.40 1008.88 1009.01 1008.79 1008.29 1007.63 1006.92 1006.31 1005.84 1005.52 1005.27 1004.98 1004.51 1003.76 1002.67 1001.28 999.70 998.11 996.69 995.63 995.04 994.99 995.47 996.36 997.55 998.90 1000.30 1001.66 1002.96 1004.19 1005.35 1006.47 1007.53 1008.55 1009.49 1010.34 1011.08 1011.72 1012.28 1012.80 1013.30 1013.81 1014.33 1014.87 1015.38 1015.87 1016.29
1006.89 1007.70 1008.33 1008.69 1008.76 1008.56 1008.14 1007.61 1007.07 1006.63 1006.31 1006.09 1005.89 1005.59 1005.07 1004.25 1003.10 1001.66 1000.08 998.52 997.18 996.23 995.77 995.85 996.43 997.41 998.64 1000.00 1001.37 1002.69 1003.91 1005.05 1006.12 1007.14 1008.12 1009.07 1009.96 1010.77 1011.51 1012.15 1012.74 1013.27 1013.79 1014.31 1014.82 1015.34 1015.83 1016.27 1016.67
1006.92 1007.58 1008.08 1008.35 1008.40 1008.25 1007.95 1007.60 1007.28 1007.04 1006.89 1006.79 1006.65 1006.36 1005.82 1004.97 1003.79 1002.35 1000.82 999.35 998.12 997.30 996.97 997.16 997.82 998.82 1000.05 1001.36 1002.65 1003.86 1004.97 1005.99 1006.95 1007.87 1008.77 1009.65 1010.49 1011.29 1012.02 1012.67 1013.26 1013.81 1014.33 1014.84 1015.34 1015.82 1016.27 1016.67 1017.01
1006.81 1007.33 1007.71 1007.93 1007.99 1007.91 1007.77 1007.62 1007.51 1007.48 1007.50 1007.52 1007.45 1007.18 1006.64 1005.79 1004.63 1003.25 1001.81 1000.46 999.39 998.71 998.51 998.78 999.48 1000.48 1001.64 1002.86 1004.03 1005.12 1006.10 1007.00 1007.84 1008.67 1009.50 1010.32 1011.13 1011.90 1012.62 1013.27 1013.86 1014.40 1014.91 1015.39 1015.86 1016.30 1016.69 1017.04 1017.34
1006.62 1007.04 1007.34 1007.52 1007.61 1007.63 1007.64 1007.68 1007.77 1007.92 1008.09 1008.21 1008.20 1007.96 1007.44 1006.62 1005.52 1004.24 1002.94 1001.76 1000.85 1000.33 1000.24 1000.58 1001.28 1002.24 1003.31 1004.41 1005.45 1006.40 1007.26 1008.04 1008.80 1009.55 1010.32 1011.10 1011.87 1012.61 1013.30 1013.93 1014.49 1015.00 1015.48 1015.93 1016.35 1016.74 1017.09 1017.39 1017.64
1006.45 1006.81 1007.06 1007.24 1007.37 1007.49 1007.63 1007.83 1008.07 1008.36 1008.64 1008.83 1008.86 1008.66 1008.18 1007.41 1006.41 1005.28 1004.14 1003.15 1002.42 1002.04 1002.05 1002.43 1003.12 1004.00 1004.97 1005.94 1006.85 1007.67 1008.41 1009.10 1009.78 1010.47 1011.19 1011.93 1012.66 1013.37 1014.02 1014.61 1015.13 1015.60 1016.03 1016.43 1016.81 1017.15 1017.46 1017.73 1017.95
1006.42 1006.74 1006.98 1007.16 1007.34 1007.53 1007.78 1008.09 1008.44 1008.82 1009.16 1009.39 1009.45 1009.29 1008.86 1008.19 1007.31 1006.35 1005.40 1004.59 1004.03 1003.78 1003.87 1004.27 1004.91 1005.71 1006.56 1007.40 1008.17 1008.88 1009.52 1010.14 1010.76 1011.41 1012.08 1012.78 1013.47 1014.13 1014.74 1015.27 1015.75 1016.16 1016.54 1016.89 1017.22 1017.53 1017.82 1018.06 1018.27
1006.59 1006.89 1007.13 1007.33 1007.54 1007.80 1008.11 1008.49 1008.91 1009.32 1009.69 1009.94 1010.02 1009.89 1009.54 1008.97 1008.25 1007.46 1006.71 1006.08 1005.67 1005.53 1005.67 1006.05 1006.63 1007.32 1008.05 1008.76 1009.42 1010.02 1010.58 1011.13 1011.70 1012.30 1012.94 1013.59 1014.23 1014.84 1015.39 1015.87 1016.29 1016.65 1016.98 1017.30 1017.60 1017.89 1018.16 1018.41 1018.61
1006.95 1007.26 1007.51 1007.73 1007.97 1008.27 1008.62 1009.03 1009.46 1009.89 1010.25 1010.51 1010.61 1010.53 1010.26 1009.83 1009.27 1008.66 1008.09 1007.63 1007.34 1007.27 1007.42 1007.76 1008.26 1008.83 1009.43 1010.02 1010.57 1011.08 1011.57 1012.06 1012.57 1013.12 1013.70 1014.30 1014.89 1015.44 1015.93 1016.36 1016.74 1017.06 1017.36 1017.65 1017.94 1018.23 1018.51 1018.77 1018.99
1007.45 1007.77 1008.02 1008.27 1008.55 1008.87 1009.24 1009.66 1010.09 1010.50 1010.85 1011.11 1011.24 1011.22 1011.06 1010.76 1010.37 1009.94 1009.53 1009.20 1009.01 1008.97 1009.10 1009.38 1009.78 1010.23 1010.72 1011.19 1011.64 1012.06 1012.48 1012.90 1013.35 1013.84 1014.36 1014.89 1015.42 1015.91 1016.35 1016.75 1017.09 1017.39 1017.68 1017.97 1018.26 1018.56 1018.86 1019.14 1019.39
1007.97 1008.29 1008.57 1008.85 1009.16 1009.51 1009.90 1010.31 1010.73 1011.12 1011.46 1011.72 1011.89 1011.94 1011.89 1011.74 1011.51 1011.23 1010.97 1010.75 1010.61 1010.58 1010.67 1010.87 1011.17 1011.51 1011.89 1012.26 1012.63 1012.98 1013.32 1013.68 1014.06 1014.47 1014.91 1015.36 1015.82 1016.25 1016.66 1017.02 1017.35 1017.66 1017.96 1018.25 1018.56 1018.88 1019.19 1019.49 1019.76
1008.37 1008.71 1009.02 1009.35 1009.71 1010.11 1010.52 1010.93 1011.33 1011.69 1012.01 1012.28 1012.48 1012.62 1012.67 1012.66 1012.59 1012.46 1012.31 1012.18 1012.07 1012.03 1012.07 1012.20 1012.40 1012.65 1012.94 1013.24 1013.54 1013.83 1014.11 1014.40 1014.71 1015.03 1015.38 1015.75 1016.12 1016.50 1016.87 1017.22 1017.55 1017.87 1018.19 1018.51 1018.83 1019.16 1019.48 1019.79 1020.07
1008.56 1008.93 1009.31 1009.72 1010.15 1010.60 1011.04 1011.45 1011.82 1012.15 1012.45 1012.71 1012.94 1013.15 1013.31 1013.43 1013.49 1013.50 1013.46 1013.39 1013.31 1013.25 1013.24 1013.30 1013.43 1013.61 1013.85 1014.10 1014.37 1014.62 1014.86 1015.09 1015.31 1015.55 1015.80 1016.07 1016.38 1016.70 1017.03 1017.37 1017.71 1018.05 1018.38 1018.72 1019.05 1019.39 1019.71 1020.02 1020.29
1008.51 1008.93 1009.41 1009.93 1010.47 1010.98 1011.45 1011.86 1012.19 1012.46 1012.71 1012.94 1013.18 1013.43 1013.69 1013.93 1014.12 1014.25 1014.30 1014.29 1014.24 1014.18 1014.13 1014.14 1014.23 1014.38 1014.59 1014.84 1015.10 1015.34 1015.55 1015.73 1015.89 1016.04 1016.20 1016.38 1016.61 1016.87 1017.17 1017.50 1017.84 1018.19 1018.54 1018.89 1019.22 1019.55 1019.86 1020.14 1020.40
1008.23 1008.76 1009.38 1010.04 1010.70 1011.30 1011.79 1012.16 1012.42 1012.60 1012.75 1012.92 1013.14 1013.42 1013.75 1014.08 1014.40 1014.64 1014.79 1014.86 1014.84 1014.79 1014.73 1014.73 1014.79 1014.95 1015.17 1015.44 1015.71 1015.97 1016.18 1016.34 1016.44 1016.52 1016.59 1016.70 1016.84 1017.05 1017.31 1017.62 1017.96 1018.32 1018.67 1019.00 1019.32 1019.62 1019.90 1020.15 1020.38
1007.82 1008.51 1009.31 1010.15 1010.94 1011.61 1012.11 1012.41 1012.55 1012.59 1012.61 1012.66 1012.82 1013.09 1013.46 1013.89 1014.31 1014.68 1014.94 1015.08 1015.12 1015.10 1015.06 1015.06 1015.14 1015.31 1015.57 1015.88 1016.20 1016.49 1016.72 1016.87 1016.94 1016.97 1016.98 1017.01 1017.09 1017.24 1017.46 1017.75 1018.07 1018.41 1018.75 1019.06 1019.35 1019.61 1019.84 1020.07 1020.27
1007.43 1008.32 1009.34 1010.36 1011.28 1012.00 1012.46 1012.65 1012.62 1012.47 1012.29 1012.19 1012.25 1012.48 1012.88 1013.38 1013.92 1014.41 1014.79 1015.04 1015.16 1015.19 1015.19 1015.21 1015.31 1015.51 1015.80 1016.16 1016.53 1016.87 1017.13 1017.29 1017.35 1017.35 1017.32 1017.29 1017.32 1017.43 1017.61 1017.86 1018.16 1018.48 1018.79 1019.06 1019.31 1019.52 1019.71 1019.90 1020.08
1007.17 1008.30 1009.54 1010.74 1011.76 1012.49 1012.86 1012.89 1012.65 1012.26 1011.85 1011.57 1011.50 1011.68 1012.09 1012.67 1013.32 1013.94 1014.45 1014.82 1015.03 1015.13 1015.17 1015.22 1015.35 1015.57 1015.90 1016.29 1016.71 1017.09 1017.39 1017.57 1017.65 1017.64 1017.58 1017.53 1017.52 1017.59 1017.74 1017.96 1018.23 1018.51 1018.79 1019.02 1019.22 1019.39 1019.54 1019.69 1019.85
1007.13 1008.48 1009.93 1011.27 1012.35 1013.04 1013.30 1013.13 1012.64 1011.99 1011.34 1010.86 1010.66 1010.77 1011.19 1011.84 1012.60 1013.35 1014.01 1014.50 1014.81 1014.98 1015.07 1015.15 1015.29 1015.52 1015.87 1016.28 1016.73 1017.14 1017.48 1017.70 1017.79 1017.79 1017.74 1017.68 1017.65 1017.70 1017.83 1018.02 1018.26 1018.51 1018.75 1018.95 1019.10 1019.22 1019.33 1019.45 1019.61
1007.30 1008.85 1010.45 1011.89 1012.97 1013.58 1013.67 1013.29 1012.55 1011.64 1010.77 1010.10 1009.78 1009.84 1010.27 1010.98 1011.85 1012.73 1013.51 1014.12 1014.53 1014.77 1014.90 1015.00 1015.15 1015.38 1015.72 1016.14 1016.60 1017.04 1017.40 1017.65 1017.78 1017.81 1017.77 1017.72 1017.70 1017.74 1017.86 1018.04 1018.25 1018.48 1018.68 1018.84 1018.96 1019.04 1019.12 1019.22 1019.36
1007.61 1009.30 1010.99 1012.44 1013.48 1013.97 1013.88 1013.29 1012.32 1011.19 1010.13 1009.32 1008.90 1008.93 1009.38 1010.15 1011.11 1012.10 1012.99 1013.71 1014.20 1014.50 1014.67 1014.79 1014.93 1015.15 1015.47 1015.88 1016.34 1016.78 1017.16 1017.44 1017.61 1017.67 1017.67 1017.65 1017.65 1017.70 1017.82 1017.99 1018.19 1018.40 1018.58 1018.71 1018.80 1018.86 1018.90 1018.98 1019.10
1007.94 1009.70 1011.39 1012.79 1013.72 1014.07 1013.81 1013.03 1011.89 1010.61 1009.43 1008.53 1008.07 1008.08 1008.55 1009.37 1010.39 1011.46 1012.43 1013.22 1013.78 1014.13 1014.33 1014.46 1014.60 1014.82 1015.12 1015.52 1015.96 1016.41 1016.80 1017.11 1017.31 1017.42 1017.46 1017.47 1017.50 1017.57 1017.69 1017.87 1018.07 1018.26 1018.43 1018.54 1018.61 1018.65 1018.67 1018.72 1018.82
1008.17 1009.90 1011.51 1012.79 1013.58 1013.77 1013.37 1012.47 1011.23 1009.88 1008.66 1007.75 1007.28 1007.31 1007.79 1008.63 1009.69 1010.79 1011.79 1012.62 1013.22 1013.61 1013.85 1014.00 1014.16 1014.37 1014.68 1015.06 1015.50 1015.95 1016.35 1016.68 1016.91 1017.05 1017.12 1017.18 1017.23 1017.33 1017.47 1017.65 1017.85 1018.04 1018.20 1018.31 1018.37 1018.39 1018.40 1018.43 1018.50
1008.21 1009.82 1011.27 1012.38 1012.99 1013.05 1012.55 1011.59 1010.35 1009.03 1007.85 1007.00 1006.57 1006.63 1007.12 1007.95 1008.98 1010.06 1011.06 1011.89 1012.50 1012.92 1013.20 1013.39 1013.58 1013.83 1014.15 1014.54 1014.98 1015.43 1015.84 1016.18 1016.42 1016.59 1016.69 1016.77 1016.86 1016.97 1017.12 1017.31 1017.51 1017.70 1017.86 1017.97 1018.03 1018.05 1018.05 1018.06 1018.10
1008.02 1009.44 1010.67 1011.57 1012.01 1011.95 1011.41 1010.48 1009.32 1008.12 1007.07 1006.33 1005.98 1006.07 1006.55 1007.34 1008.31 1009.31 1010.25 1011.04 1011.64 1012.09 1012.40 1012.66 1012.91 1013.20 1013.56 1013.99 1014.44 1014.89 1015.30 1015.63 1015.88 1016.05 1016.17 1016.26 1016.36 1016.48 1016.64 1016.83 1017.03 1017.22 1017.38 1017.50 1017.56 1017.59 1017.59 1017.59 1017.62
Thickness
5809 5806 5801 5790 5769 5750 5744 5755 5764 5764 5765 5772 5774 5768 5760 5754 5748 5745 5766 5776 5776 5776 5776 5776 5775 5774 5774 5774 5774 5774 5774 5774 5773 5773 5774 5774 5774 5774 5774 5774 5774 5773 5773 5773 5772 5772 5771 5769 5766
5810 5806 5796 5781 5755 5736 5742 5760 5762 5766 5772 5776 5775 5769 5762 5758 5763 5764 5769 5775 5777 5776 5776 5776 5775 5774 5774 5774 5773 5773 5773 5773 5773 5772 5773 5773 5773 5773 5773 5772 5773 5773 5773 5772 5771 5770 5768 5767 5765
5811 5806 5788 5770 5752 5741 5749 5763 5766 5773 5779 5777 5771 5769 5763 5759 5765 5768 5773 5776 5777 5776 5776 5775 5775 5774 5773 5773 5772 5772 5772 5772 5772 5772 5772 5772 5772 5772 5772 5772 5772 5772 5772 5771 5770 5768 5767 5765 5763
5809 5797 5784 5765 5754 5760 5765 5770 5774 5774 5777 5778 5771 5763 5766 5771 5771 5773 5777 5777 5776 5776 5776 5775 5775 5774 5773 5772 5772 5772 5771 5771 5771 5771 5771 5772 5772 5772 5771 5771 5771 5771 5771 5770 5768 5767 5765 5764 5762
5807 5788 5769 5755 5759 5770 5777 5780 5779 5773 5772 5773 5770 5760 5761 5773 5777 5777 5777 5777 5775 5775 5776 5775 5774 5773 5772 5772 5771 5771 5771 5771 5771 5771 5771 5772 5772 5771 5771 5770 5770 5770 5769 5768 5766 5765 5764 5762 5761
5794 5781 5758 5750 5761 5774 5779 5784 5780 5774 5773 5773 5769 5761 5761 5773 5775 5776 5777 5776 5776 5775 5775 5774 5774 5773 5772 5771 5771 5771 5771 5771 5771 5771 5772 5772 5772 5771 5770 5770 5769 5769 5768 5766 5765 5764 5763 5760 5759
5790 5774 5761 5761 5763 5769 5779 5786 5779 5774 5772 5773 5774 5760 5762 5770 5775 5777 5777 5776 5776 5775 5774 5773 5772 5772 5771 5771 5771 5771 5771 5771 5771 5771 5772 5772 5772 5771 5770 5770 5769 5768 5767 5766 5764 5764 5763 5759 5758
5800 5779 5766 5764 5765 5769 5784 5787 5786 5780 5776 5784 5780 5763 5760 5770 5776 5776 5775 5774 5774 5773 5772 5771 5771 5771 5770 5770 5770 5770 5771 5771 5771 5771 5771 5771 5771 5771 5770 5769 5768 5767 5766 5765 5763 5762 5761 5759 5757
5806 5774 5761 5769 5771 5776 5788 5785 5787 5791 5784 5783 5782 5776 5775 5777 5776 5772 5770 5770 5770 5771 5771 5771 5770 5770 5769 5769 5769 5769 5769 5770 5769 5769 5770 5770 5770 5769 5769 5768 5767 5766 5765 5764 5762 5761 5759 5758 5756
5796 5770 5775 5789 5789 5787 5789 5787 5786 5784 5777 5775 5776 5779 5780 5777 5773 5769 5766 5766 5767 5768 5769 5770 5770 5769 5769 5769 5768 5768 5768 5768 5768 5768 5768 5768 5768 5768 5768 5767 5766 5765 5764 5763 5761 5760 5759 5757 5755
5798 5784 5793 5799 5800 5797 5790 5789 5791 5781 5772 5775 5774 5775 5777 5774 5771 5769 5768 5768 5768 5769 5770 5770 5770 5769 5768 5768 5767 5767 5767 5767 5767 5767 5767 5767 5767 5767 5766 5766 5765 5764 5763 5761 5760 5758 5757 5756 5754
5801 5801 5804 5803 5805 5800 5794 5792 5788 5785 5784 5790 5787 5783 5778 5774 5771 5770 5769 5769 5770 5770 5770 5771 5771 5769 5768 5768 5767 5766 5766 5766 5766 5766 5767 5766 5766 5765 5765 5765 5764 5763 5761 5760 5759 5757 5756 5754 5752
5804 5804 5809 5809 5806 5803 5798 5792 5790 5788 5793 5794 5790 5784 5779 5775 5773 5773 5773 5772 5771 5770 5771 5771 5771 5769 5769 5768 5767 5767 5766 5766 5766 5766 5766 5766 5765 5765 5764 5764 5763 5762 5760 5759 5758 5756 5755 5753 5750
5808 5807 5806 5807 5806 5805 5796 5792 5790 5788 5794 5791 5786 5782 5780 5777 5776 5774 5773 5771 5771 5771 5771 5771 5770 5770 5769 5768 5767 5767 5767 5766 5766 5766 5766 5766 5765 5765 5764 5762 5762 5761 5760 5758 5757 5755 5753 5751 5749
5812 5801 5799 5802 5803 5802 5797 5783 5787 5793 5793 5787 5784 5782 5780 5779 5778 5776 5775 5774 5773 5772 5772 5771 5771 5770 5769 5768 5768 5768 5767 5767 5767 5766 5766 5766 5765 5764 5763 5762 5760 5759 5758 5757 5755 5754 5751 5749 5747
5803 5789 5779 5794 5801 5801 5791 5772 5790 5796 5791 5784 5783 5782 5780 5779 5779 5780 5779 5777 5776 5774 5773 5772 5773 5771 5770 5769 5769 5769 5768 5768 5767 5767 5766 5765 5765 5764 5763 5761 5760 5759 5757 5756 5754 5752 5749 5747 5745
5781 5771 5774 5786 5800 5799 5789 5779 5792 5797 5792 5784 5784 5783 5781 5780 5780 5782 5782 5780 5778 5776 5774 5772 5772 5771 5771 5770 5770 5769 5769 5768 5767 5767 5766 5765 5765 5764 5763 5761 5759 5758 5757 5755 5753 5750 5748 5744 5742
5772 5773 5776 5779 5795 5795 5786 5785 5793 5796 5792 5786 5785 5784 5782 5781 5782 5785 5784 5783 5780 5778 5775 5773 5772 5771 5771 5770 5769 5768 5768 5767 5767 5766 5766 5765 5764 5763 5762 5760 5759 5757 5755 5753 5751 5748 5746 5743 5741
5790 5782 5778 5786 5800 5794 5786 5785 5790 5793 5791 5787 5785 5784 5783 5784 5787 5787 5786 5784 5781 5778 5776 5774 5772 5772 5771 5769 5767 5765 5764 5765 5765 5765 5765 5764 5763 5762 5761 5760 5758 5756 5754 5752 5750 5747 5743 5741 5739
5791 5782 5780 5789 5800 5794 5784 5784 5792 5794 5793 5793 5790 5788 5787 5785 5785 5785 5785 5784 5781 5779 5777 5776 5774 5773 5772 5771 5769 5767 5766 5765 5765 5764 5764 5763 5763 5762 5761 5759 5757 5755 5752 5750 5748 5746 5741 5739 5738
5787 5783 5783 5783 5791 5792 5784 5776 5784 5794 5797 5796 5795 5794 5792 5789 5786 5786 5785 5784 5782 5780 5779 5779 5776 5774 5773 5772 5770 5768 5766 5764 5763 5762 5762 5762 5762 5761 5759 5758 5756 5753 5751 5748 5746 5745 5741 5737 5736
5781 5798 5794 5788 5775 5765 5775 5753 5776 5787 5789 5793 5795 5795 5794 5793 5791 5789 5787 5785 5785 5784 5783 5781 5778 5776 5775 5773 5770 5767 5764 5761 5761 5761 5761 5761 5761 5759 5758 5756 5754 5752 5750 5747 5746 5744 5742 5739 5734
5794 5802 5794 5785 5772 5761 5766 5755 5766 5782 5781 5790 5797 5800 5800 5799 5796 5793 5792 5790 5789 5788 5785 5783 5780 5777 5775 5774 5771 5768 5765 5764 5763 5762 5760 5759 5759 5758 5756 5755 5753 5751 5749 5747 5745 5743 5742 5739 5735
5801 5790 5779 5767 5757 5744 5758 5753 5759 5775 5788 5796 5803 5805 5805 5803 5801 5798 5796 5794 5791 5789 5787 5784 5780 5777 5776 5774 5772 5769 5766 5764 5762 5760 5758 5757 5757 5756 5755 5753 5752 5749 5747 5746 5744 5742 5741 5739 5736
5789 5765 5740 5738 5729 5736 5759 5756 5765 5795 5805 5807 5808 5810 5810 5808 5804 5800 5797 5794 5791 5789 5787 5785 5781 5777 5776 5774 5772 5769 5767 5765 5762 5760 5758 5756 5755 5754 5753 5752 5750 5748 5747 5745 5743 5741 5738 5737 5734
5778 5767 5739 5729 5725 5736 5752 5752 5779 5806 5812 5815 5815 5815 5813 5809 5807 5804 5802 5798 5794 5791 5788 5785 5782 5779 5777 5775 5772 5770 5768 5766 5763 5761 5759 5757 5755 5754 5753 5751 5750 5748 5746 5744 5741 5739 5737 5736 5734
5772 5762 5765 5741 5736 5732 5742 5760 5785 5805 5807 5810 5812 5812 5812 5811 5810 5808 5805 5802 5798 5794 5790 5788 5784 5781 5779 5777 5774 5771 5769 5766 5764 5762 5760 5757 5755 5754 5752 5750 5749 5747 5745 5743 5740 5738 5736 5734 5732
5780 5764 5747 5735 5723 5723 5740 5751 5765 5787 5795 5803 5806 5808 5811 5812 5811 5809 5806 5804 5801 5798 5794 5791 5787 5784 5781 5778 5776 5773 5770 5767 5765 5762 5759 5757 5755 5753 5750 5748 5747 5745 5743 5740 5738 5736 5734 5732 5730
5765 5756 5743 5731 5732 5721 5723 5746 5788 5792 5798 5801 5805 5809 5810 5811 5810 5809 5808 5805 5802 5799 5795 5791 5788 5784 5781 5779 5776 5773 5770 5767 5764 5762 5759 5756 5753 5751 5748 5746 5745 5743 5740 5738 5736 5733 5732 5730 5728
5770 5758 5745 5736 5729 5724 5725 5747 5798 5799 5803 5805 5806 5809 5810 5810 5810 5809 5807 5804 5801 5798 5795 5792 5789 5786 5783 5780 5776 5773 5770 5767 5763 5760 5758 5755 5752 5749 5747 5745 5743 5740 5738 5736 5734 5731 5729 5728 5725